User: anonymous   Login
Location: Krakow
(50.0212°N, 19.9423°E)
Time: 22:06:27
(UTC+02:00)
Language:

XW-2D - Orbit

View from above orbital plane
View from above orbital plane
View from above satellite
View from above satellite

Ground track
Ground track

The orbit data is extracted from the following two-line orbital elements,

1 40907U 15049J   24113.39704452  .00068467  00000-0  14673-2 0  9998
2 40907  97.4774 130.8837 0009812 125.6910 234.5253 15.44466250476079
Epoch (UTC): 22 April 2024 09:31:44
Eccentricity: 0.0009812
inclination: 97.4774°
perigee height: 426 km
apogee height: 439 km
right ascension of ascending node: 130.8837°
argument of perigee: 125.6910°
revolutions per day: 15.44466250
mean anomaly at epoch: 234.5253°
orbit number at epoch: 47607

The dashed part of the orbit path shows where the satellite is in the earth's shadow,  

DLR